User: anonymous   Login
Location: *
(51.5000°N, 0.1100°W)
Time: 18:50:28
(UTC+00:00)
Language:

EXPRESS MD2 - Orbit

View from above orbital plane
View from above orbital plane
View from above satellite
View from above satellite

Ground track
Ground track

The orbit data is extracted from the following two-line orbital elements,

1 38745U 12044B   24207.50182053  .00039536  42003-5  84863-3 0  9999
2 38745  49.8559  36.1300 1864303 189.5547 166.4503 11.77467967476890
Epoch (UTC): 25 July 2024 12:02:37
Eccentricity: 0.1864303
inclination: 49.8559°
perigee height: 262 km
apogee height: 3305 km
right ascension of ascending node: 36.1300°
argument of perigee: 189.5547°
revolutions per day: 11.77467967
mean anomaly at epoch: 166.4503°
orbit number at epoch: 47689

The dashed part of the orbit path shows where the satellite is in the earth's shadow,  

DLR